Tracking 30922 objects as of 2-Jul-2025
HD Live streaming from Space Station
objects crossing your sky now

STARLINK-3286

Track STARLINK-3286 now!
10-day predictions
STARLINK-3286 is classified as:


NORAD ID: 50171
Int'l Code: 2021-125R
Perigee: 546.2 km
Apogee: 547.6 km
Inclination: 53.2 °
Period: 95.4 minutes
Semi major axis: 6917 km
RCS: Unknown
Launch date: December 18, 2021
Source: United States (US)
Launch site: AIR FORCE WESTERN TEST RANGE (AFWTR)
Your satellite tracking list
STARLINK-3112
Track 1 satellite(s)




NASA's NSSDC Master Catalog

Two Line Element Set (TLE):
1 50171U 21125R   25182.60133665 -.00000424  00000-0 -85459-5 0  9991
2 50171  53.2181 296.3017 0001048  94.9090 265.2022 15.08837054198691
Source of the keplerian elements: AFSPC